This is the latest recevied weather packets stored in our database for station/object KQ4OSL. If no packets are shown the sender has not sent any weather packets the latest 1 day(s).
| Time | Temp. | Humidity | Pressure | Rain* | Wind** | Luminosity | Snow |
|---|---|---|---|---|---|---|---|
| 1778001460 | 22.78° C | 48% | 1017.7 hPa | 0 mm | 3.13 m/s, 256° | 758 W/m² | - |
| 1778001157 | 22.78° C | 49% | 1017.7 hPa | 0 mm | 3.13 m/s, 270° | 772 W/m² | - |
| 1778000854 | 22.78° C | 47% | 1017.5 hPa | 0 mm | 2.68 m/s, 221° | 770 W/m² | - |
| 1778000551 | 22.78° C | 51% | 1017.4 hPa | 0 mm | 2.24 m/s, 249° | 767 W/m² | - |
| 1778000246 | 22.78° C | 50% | 1017.5 hPa | 0 mm | 1.34 m/s, 187° | 765 W/m² | - |
| 1777999942 | 22.78° C | 47% | 1017.7 hPa | 0 mm | 3.13 m/s, 170° | 768 W/m² | - |
| 1777999638 | 22.78° C | 50% | 1017.7 hPa | 0 mm | 1.79 m/s, 196° | 759 W/m² | - |
| 1777999335 | 22.78° C | 50% | 1017.7 hPa | 0 mm | 3.13 m/s, 152° | 757 W/m² | - |
| 1777999033 | 22.78° C | 51% | 1017.7 hPa | 0 mm | 1.34 m/s, 220° | 754 W/m² | - |
| 1777998732 | 22.22° C | 53% | 1018.1 hPa | 0 mm | 0.89 m/s, 243° | 755 W/m² | - |
| 1777998428 | 22.22° C | 53% | 1018.1 hPa | 0 mm | 1.79 m/s, 262° | 754 W/m² | - |
| 1777998126 | 22.22° C | 52% | 1017.9 hPa | 0 mm | 2.68 m/s, 189° | 749 W/m² | - |
| 1777997822 | 21.67° C | 54% | 1017.9 hPa | 0 mm | 2.68 m/s, 238° | 742 W/m² | - |
| 1777997520 | 22.22° C | 54% | 1017.6 hPa | 0 mm | 4.47 m/s, 164° | 739 W/m² | - |
| 1777997218 | 22.22° C | 54% | 1017.6 hPa | 0 mm | 3.13 m/s, 288° | 729 W/m² | - |
| 1777996915 | 21.67° C | 54% | 1017.4 hPa | 0 mm | 1.79 m/s, 241° | 723 W/m² | - |
| 1777996611 | 21.67° C | 55% | 1017.7 hPa | 0 mm | 3.13 m/s, 267° | 719 W/m² | - |
| 1777996307 | 21.67° C | 55% | 1017.8 hPa | 0 mm | 1.34 m/s, 219° | 717 W/m² | - |
| 1777996003 | 21.67° C | 53% | 1017.9 hPa | 0 mm | 2.24 m/s, 187° | 706 W/m² | - |
| 1777995700 | 21.67° C | 55% | 1017.8 hPa | 0 mm | 1.79 m/s, 201° | 698 W/m² | - |
| 1777995397 | 21.67° C | 53% | 1017.9 hPa | 0 mm | 2.68 m/s, 305° | 692 W/m² | - |
| 1777995094 | 21.67° C | 51% | 1017.9 hPa | 0 mm | 3.13 m/s, 275° | 681 W/m² | - |
| 1777994791 | 22.22° C | 49% | 1018.1 hPa | 0 mm | 3.13 m/s, 242° | 673 W/m² | - |
| 1777994486 | 21.67° C | 53% | 1018.1 hPa | 0 mm | 1.34 m/s, 232° | 663 W/m² | - |
| 1777994182 | 22.22° C | 52% | 1018 hPa | 0 mm | 1.34 m/s, 193° | 656 W/m² | - |
* Rain latest hour (hover to see other rain measurements)
** Current wind speed in m/s (hover to see current wind gust speed)